TimeEDT,TemperatureF,Dew PointF,Humidity,Sea Level PressureIn,VisibilityMPH,Wind Direction,Wind SpeedMPH,Gust SpeedMPH,PrecipitationIn,Events,Conditions,WindDirDegrees,DateUTC
12:15 AM,80.6,74.7,82,29.88,10.0,WSW,12.7,19.6,N/A,,Mostly Cloudy,240,2013-07-10 04:15:00
12:34 AM,80.2,74.8,84,29.88,10.0,SW,9.2,19.6,N/A,,Scattered Clouds,230,2013-07-10 04:34:00
12:55 AM,79.9,74.5,83,29.88,10.0,WSW,13.8,18.4,N/A,,Clear,240,2013-07-10 04:55:00
1:15 AM,79.5,74.3,84,29.87,10.0,SW,12.7,17.3,N/A,,Clear,230,2013-07-10 05:15:00
1:34 AM,79.0,73.9,84,29.87,10.0,WSW,10.4,16.1,N/A,,Clear,240,2013-07-10 05:34:00
1:55 AM,78.6,73.8,85,29.87,10.0,SW,10.4,19.6,N/A,,Clear,230,2013-07-10 05:55:00
2:15 AM,78.3,73.9,87,29.86,10.0,SW,10.4,17.3,N/A,,Clear,230,2013-07-10 06:15:00
2:35 AM,78.1,73.9,87,29.86,10.0,WSW,9.2,16.1,N/A,,Clear,240,2013-07-10 06:35:00
2:55 AM,77.9,74.1,88,29.85,10.0,SW,10.4,-,N/A,,Clear,230,2013-07-10 06:55:00
3:15 AM,77.9,73.9,88,29.85,10.0,SW,11.5,17.3,N/A,,Scattered Clouds,230,2013-07-10 07:15:00
3:35 AM,77.9,74.3,89,29.85,10.0,WSW,10.4,16.1,N/A,,Mostly Cloudy,240,2013-07-10 07:35:00
3:55 AM,77.9,74.3,89,29.85,10.0,WSW,10.4,-,N/A,,Scattered Clouds,240,2013-07-10 07:55:00
4:15 AM,78.1,74.3,88,29.84,10.0,WSW,9.2,-,N/A,,Scattered Clouds,240,2013-07-10 08:15:00
4:35 AM,78.3,74.3,88,29.84,10.0,WSW,11.5,16.1,N/A,,Mostly Cloudy,240,2013-07-10 08:35:00
4:55 AM,78.1,74.3,88,29.84,10.0,WSW,9.2,-,N/A,,Mostly Cloudy,240,2013-07-10 08:55:00
5:15 AM,77.9,74.3,89,29.84,10.0,WSW,9.2,-,N/A,,Mostly Cloudy,250,2013-07-10 09:15:00
5:35 AM,77.4,73.6,88,29.85,10.0,WSW,10.4,16.1,N/A,,Mostly Cloudy,250,2013-07-10 09:35:00
5:55 AM,75.7,72.9,91,29.85,7.0,West,5.8,-,N/A,,Scattered Clouds,260,2013-07-10 09:55:00
6:15 AM,75.2,72.7,92,29.85,7.0,WSW,6.9,-,N/A,,Scattered Clouds,250,2013-07-10 10:15:00
6:35 AM,75.2,72.9,92,29.85,5.0,WSW,8.1,-,N/A,,Scattered Clouds,250,2013-07-10 10:35:00
6:55 AM,75.2,72.9,92,29.85,5.0,WSW,6.9,-,N/A,,Mostly Cloudy,250,2013-07-10 10:55:00
7:15 AM,75.2,72.9,92,29.85,5.0,West,5.8,-,N/A,,Overcast,260,2013-07-10 11:15:00
7:35 AM,75.2,72.7,92,29.85,4.0,WSW,5.8,-,N/A,,Mostly Cloudy,250,2013-07-10 11:35:00
7:55 AM,75.6,73.0,92,29.85,5.0,West,3.5,-,N/A,,Mostly Cloudy,260,2013-07-10 11:55:00
8:15 AM,76.5,73.2,90,29.84,5.0,West,4.6,-,N/A,,Scattered Clouds,270,2013-07-10 12:15:00
8:35 AM,77.0,73.2,88,29.85,5.0,West,5.8,-,N/A,,Scattered Clouds,260,2013-07-10 12:35:00
8:55 AM,77.4,73.2,87,29.85,7.0,West,6.9,-,N/A,,Scattered Clouds,270,2013-07-10 12:55:00
9:15 AM,77.5,73.0,86,29.85,7.0,West,6.9,-,N/A,,Mostly Cloudy,270,2013-07-10 13:15:00
9:35 AM,77.0,73.0,88,29.86,5.0,West,6.9,-,N/A,,Mostly Cloudy,280,2013-07-10 13:35:00
9:55 AM,77.9,73.2,85,29.86,5.0,WNW,6.9,17.3,N/A,,Haze,290,2013-07-10 13:55:00
10:15 AM,77.9,71.8,81,29.87,10.0,NW,12.7,17.3,N/A,,Scattered Clouds,320,2013-07-10 14:15:00
10:34 AM,77.2,70.9,81,29.87,10.0,NW,9.2,19.6,N/A,,Clear,320,2013-07-10 14:34:00
10:55 AM,76.8,70.0,79,29.88,10.0,NW,9.2,17.3,N/A,,Clear,310,2013-07-10 14:55:00
11:15 AM,76.1,69.1,79,29.87,10.0,NNW,13.8,25.3,N/A,,Clear,330,2013-07-10 15:15:00
11:34 AM,76.3,68.7,77,29.88,10.0,NW,15.0,20.7,N/A,,Clear,320,2013-07-10 15:34:00
11:55 AM,75.0,67.8,78,29.89,10.0,North,16.1,20.7,N/A,,Clear,350,2013-07-10 15:55:00
12:15 PM,76.1,64.8,68,29.89,10.0,North,16.1,24.2,N/A,,Clear,350,2013-07-10 16:15:00
12:34 PM,75.7,65.8,71,29.90,10.0,NNW,11.5,20.7,N/A,,Clear,340,2013-07-10 16:34:00
12:55 PM,74.5,64.6,71,29.90,10.0,North,16.1,25.3,N/A,,Clear,350,2013-07-10 16:55:00
1:14 PM,74.5,64.2,70,29.91,10.0,NNW,16.1,25.3,N/A,,Clear,340,2013-07-10 17:14:00
1:35 PM,73.6,63.5,71,29.91,10.0,North,13.8,25.3,N/A,,Clear,360,2013-07-10 17:35:00
1:55 PM,74.5,63.3,68,29.91,10.0,NNW,11.5,19.6,N/A,,Clear,340,2013-07-10 17:55:00
2:14 PM,74.1,62.8,68,29.91,10.0,NNW,15.0,20.7,N/A,,Clear,340,2013-07-10 18:14:00
2:35 PM,73.4,61.3,66,29.92,10.0,NNW,16.1,25.3,N/A,,Clear,340,2013-07-10 18:35:00
2:55 PM,73.6,61.2,65,29.92,10.0,NNW,16.1,25.3,N/A,,Clear,340,2013-07-10 18:55:00
3:14 PM,73.4,60.6,64,29.93,10.0,NNW,11.5,20.7,N/A,,Clear,340,2013-07-10 19:14:00
3:35 PM,73.6,59.4,61,29.93,10.0,North,15.0,23.0,N/A,,Clear,350,2013-07-10 19:35:00
3:54 PM,73.6,59.4,61,29.93,10.0,North,9.2,25.3,N/A,,Clear,350,2013-07-10 19:54:00
4:15 PM,73.8,58.3,58,29.93,10.0,North,11.5,25.3,N/A,,Clear,350,2013-07-10 20:15:00
4:34 PM,73.8,58.3,58,29.93,10.0,North,15.0,23.0,N/A,,Clear,360,2013-07-10 20:34:00
4:55 PM,73.9,57.9,57,29.93,10.0,North,13.8,17.3,N/A,,Clear,360,2013-07-10 20:55:00
5:15 PM,73.6,57.0,56,29.92,10.0,North,17.3,23.0,N/A,,Clear,360,2013-07-10 21:15:00
5:35 PM,73.4,56.8,56,29.92,10.0,North,12.7,20.7,N/A,,Clear,360,2013-07-10 21:35:00
5:55 PM,73.4,57.4,57,29.92,10.0,North,10.4,17.3,N/A,,Clear,360,2013-07-10 21:55:00
6:15 PM,72.5,56.5,57,29.91,10.0,North,13.8,23.0,N/A,,Clear,360,2013-07-10 22:15:00
6:35 PM,72.5,56.5,57,29.91,10.0,North,10.4,20.7,N/A,,Clear,360,2013-07-10 22:35:00
6:55 PM,72.5,56.7,57,29.92,10.0,North,10.4,-,N/A,,Clear,360,2013-07-10 22:55:00
7:14 PM,72.0,56.7,58,29.92,10.0,North,9.2,16.1,N/A,,Clear,350,2013-07-10 23:14:00
7:35 PM,71.8,57.6,61,29.93,10.0,North,9.2,-,N/A,,Clear,10,2013-07-10 23:35:00
7:55 PM,71.2,57.4,61,29.93,10.0,North,10.4,17.3,N/A,,Clear,360,2013-07-10 23:55:00
8:14 PM,70.7,58.1,64,29.94,10.0,North,9.2,-,N/A,,Clear,350,2013-07-11 00:14:00
8:35 PM,70.0,57.6,65,29.94,10.0,North,5.8,-,N/A,,Clear,350,2013-07-11 00:35:00
8:54 PM,69.3,57.9,67,29.94,10.0,North,5.8,-,N/A,,Clear,350,2013-07-11 00:54:00
9:15 PM,68.2,58.5,71,29.95,10.0,North,3.5,-,N/A,,Clear,350,2013-07-11 01:15:00
9:35 PM,67.6,58.8,73,29.96,10.0,Calm,Calm,-,N/A,,Clear,0,2013-07-11 01:35:00
9:54 PM,67.1,58.5,74,29.97,10.0,Calm,Calm,-,N/A,,Clear,0,2013-07-11 01:54:00
10:15 PM,64.8,59.0,82,29.98,10.0,Calm,Calm,-,N/A,,Clear,0,2013-07-11 02:15:00
10:34 PM,62.6,59.4,89,29.99,10.0,Calm,Calm,-,N/A,,Clear,0,2013-07-11 02:34:00
10:55 PM,62.1,59.0,90,29.99,10.0,Calm,Calm,-,N/A,,Clear,0,2013-07-11 02:55:00
11:15 PM,60.8,58.8,93,29.99,10.0,Calm,Calm,-,N/A,,Clear,0,2013-07-11 03:15:00
11:34 PM,60.1,58.1,93,30.00,10.0,Calm,Calm,-,N/A,,Clear,0,2013-07-11 03:34:00
11:55 PM,59.9,58.1,94,29.99,10.0,Calm,Calm,-,N/A,,Clear,0,2013-07-11 03:55:00